This demonstration page uses our WeatherBlox Daily Observations layout. Learn more.

Left ArrowRight Arrow

38.88101, -77.10428

Hourly Observations for September 18, 2022

Temp ( °F °C ) Dew Point ( °F °C ) Humidity (%) Winds ( mph kmh ) Pressure ( in mb ) Visibility ( mi km ) Precip ( " mm )
12:52 am 00:52 Partly Cloudy 67 19.4 61 16.1 81 81 SSW 7 11 30.17 1022 10 16 0.00 0.00
1:52 am 01:52 Partly Cloudy 67 19.4 61 16.1 81 81 S 8 13 30.16 1021 10 16 0.00 0.00
2:52 am 02:52 Mostly Clear 67 19.4 61 16.1 81 81 SSW 7 11 30.15 1021 10 16 0.00 0.00
3:52 am 03:52 Mostly Clear 66 18.9 61 16.1 84 84 SW 3 6 30.15 1021 10 16 0.00 0.00
4:52 am 04:52 Mostly Clear 64 17.8 61 16.1 90 90 WSW 3 6 30.14 1021 10 16 0.00 0.00
5:52 am 05:52 Mostly Clear 64 17.8 61 16.1 90 90 SW 5 7 30.14 1021 10 16 0.00 0.00
6:52 am 06:52 Partly Cloudy 64 17.8 62 16.7 93 93 SW 5 7 30.14 1021 10 16 0.00 0.00
7:52 am 07:52 Mostly Sunny 66 18.9 63 17.2 90 90 SW 6 9 30.15 1021 10 16 0.00 0.00
8:52 am 08:52 Mostly Sunny 67 19.4 63 17.2 87 87 SSW 5 7 30.15 1021 10 16 0.00 0.00
9:52 am 09:52 Mostly Sunny 71 21.7 62 16.7 73 73 SSW 6 9 30.15 1021 10 16 0.00 0.00
10:52 am 10:52 Sunny 74 23.3 64 17.8 71 71 S 9 15 30.15 1021 10 16 0.00 0.00
11:52 am 11:52 Sunny 78 25.6 63 17.2 60 60 S 10 17 30.13 1020 10 16 0.00 0.00
12:52 pm 12:52 Sunny 81 27.2 62 16.7 53 53 SSE 9 15 30.11 1020 10 16 0.00 0.00
1:52 pm 13:52 Partly Cloudy 82 27.8 63 17.2 53 53 S 12 19 30.09 1019 10 16 0.00 0.00
2:52 pm 14:52 Partly Cloudy 82 27.8 64 17.8 55 55 S 9 15 30.08 1019 10 16 0.00 0.00
3:52 pm 15:52 Partly Cloudy 83 28.3 64 17.8 53 53 SSE 9 15 30.06 1018 10 16 0.00 0.00
4:52 pm 16:52 Partly Cloudy 83 28.3 65 18.3 55 55 S 9 15 30.04 1017 10 16 0.00 0.00
5:52 pm 17:52 Mostly Sunny 82 27.8 63 17.2 53 53 SSW 8 13 30.03 1017 10 16 0.00 0.00
6:52 pm 18:52 Mostly Sunny 81 27.2 62 16.7 53 53 SW 9 15 30.03 1017 10 16 0.00 0.00
7:52 pm 19:52 Clear 79 26.1 62 16.7 56 56 SSW 6 9 30.03 1017 10 16 0.00 0.00
8:52 pm 20:52 Clear 76 24.4 65 18.3 69 69 SSW 6 9 30.05 1018 10 16 0.00 0.00
9:52 pm 21:52 Partly Cloudy 74 23.3 67 19.4 79 79 S 6 9 30.04 1017 10 16 0.00 0.00
10:52 pm 22:52 Partly Cloudy 74 23.3 66 18.9 76 76 S 7 11 30.04 1017 10 16 0.00 0.00
11:52 pm 23:52 Partly Cloudy 73 22.8 66 18.9 79 79 SSW 5 7 30.04 1017 10 16 0.00 0.00

Powered by AerisWeather